Weather in Bokovo

Russia / Kostroma Oblast     58°19′34″N   41°42′35″E
temp.,
°C
wind,
m/s
gust,
m/s
humid.,
%
clouds,
%
prec.,
mm/h
press.,
hPa
HPBL,
m
11 may, tue
tue1100:00+5ene22775 0.0 102910
03:00+4e228114 0.0 103014
06:00+7ene23757 0.0 103099
09:00+12ene24545 0.0 1030592
12:00+16ene344211 0.0 10301026
15:00+18e34395 0.0 10291105
18:00+17e23585 0.0 1028114
21:00+11ese22705 0.0 102925
12 may, wed
wed1200:00+9se22717 0.0 102925
03:00+8ese22785 0.0 102923
06:00+11e12794 0.0 102968
09:00+17e23650 0.0 1029445
12:00+21e34540 0.0 1027957
15:00+23e45492 0.0 10261561
18:00+21e376344 0.0 1024284
21:00+15ese311853 0.3 1025225
13 may, thu
thu1300:00+13se249175 0.0 102563
03:00+13ese378781 0.0 1025167
06:00+14se3986100 0.0 1025345
09:00+19se486382 0.0 1024910
12:00+22se585253 0.0 10221654
15:00+22se6105034 0.0 10201695
18:00+18sse61371100 0.6 1019737
21:00+15se5148897 1.0 1018852
14 may, fri
fri1400:00+14sse41195100 1.0 1017544
03:00+14s269539 1.2 1018306
06:00+13s26956 0.0 1019249
09:00+17ssw467416 0.0 1019814
12:00+20ssw5860100 0.2 10191581
15:00+20ssw4665100 0.5 10181253
18:00+19s367655 0.5 1018843
21:00+15se229111 0.8 101735
15 may, sat
sat1500:00+14ssw41195100 1.4 1016339
03:00+14ese3897100 2.4 1015226
06:00+15se3995100 0.1 1014327
09:00+19sse477997 0.1 1014527
12:00+23sse4765100 0.4 10121075
15:00+22sse377764 4.5 1011685
18:00+20s61276100 4.0 1009461
21:00+15ssw4129641 5.1 1010424